Location: Middlebury
(44.0153°N, 73.1678°W)
Time: 12:32:47
(UTC-05:00)

ISS - Pass Details

Date: 04 April 2019
Orbit: 418 x 420 km, 51.6° (Epoch: 27 November)

Event Time Altitude Azimuth Distance (km) Brightness Sun altitude
Rises 20:53:20 0° 293° (WNW) 2,409 2.0 -16.3°
Reaches altitude 10° 20:55:41 10° 279° (W) 1,546 0.3 -16.6°
Maximum altitude 20:58:32 24° 224° (SW) 967 -1.8 -17.1°
Enters shadow 21:00:07 17° 185° (S) 1,185 -1.7 -17.4°
